Akron, CO

6:21 PM MST on January 16, 2017 (GMT -0700)
Akron-Washington County

Weather History for KAKO - August, 2014

Change the Weather History Date:

Sunday, August 31, 2014

  Actual Average Record
Temperature  
Mean Temperature 64 °F 69 °F  
Max Temperature 76 °F 83 °F 98 °F (1948)
Min Temperature 51 °F 55 °F 39 °F (1944)
Degree Days  
Heating Degree Days 1    
Month to date heating degree days 3  
Cooling Degree Days 0    
Month to date cooling degree days 214  
Growing Degree Days 14 (Base 50)    
Moisture  
Dew Point 49 °F    
Average Humidity 62    
Maximum Humidity 86    
Minimum Humidity 38    
Precipitation  
Precipitation T in 0.06 in 0.85 in (1986)
Month to date precipitation 4.81 2.30  
Year to date precipitation 15.60 13.49  
Sea Level Pressure  
Sea Level Pressure 29.79 in    
Wind  
Wind Speed 10 mph (NNW)    
Max Wind Speed 31 mph    
Max Gust Speed 35 mph    
Visibility 10 miles    
Events Rain , Thunderstorm    
T = Trace of Precipitation, MM = Missing Value Source: NWS Daily Summary

Daily Weather History Graph

Daily Weather History Graph

Search for Another Location

Airport or City:

Trip Planner

Search our weather history database for the weather conditions in past years. The results will help you decide how hot, cold, wet, or windy it might be!

Date:

Astronomy

Aug. 31, 2014 Rise Set
Actual Time 6:19 AM MDT 7:26 PM MDT
Civil Twilight 5:51 AM MDT 7:53 PM MDT
Nautical Twilight 5:18 AM MDT 8:27 PM MDT
Astronomical Twilight 4:43 AM MDT 9:01 PM MDT
Moon 12:08 PM MDT (8/31) 10:42 PM MDT (8/31)
Length of Visible Light 14h 02m
Length of Day
13h 06m
Waxing Crescent, 32% of the Moon is Illuminated
Aug 31
Waxing Crescent
Sep 2
First Quarter
Sep 8
Full
Sep 15
Last Quarter
Sep 24
New

Hourly Weather History & Observations

Time (MDT) Temp. Dew Point Humidity Pressure Visibility Wind Dir Wind Speed Gust Speed Precip Events Conditions
12:53 AM 66.9 °F 48.9 °F 52% 29.72 in 10.0 mi East 6.9 mph - N/A   Clear
1:53 AM 63.0 °F 50.0 °F 63% 29.71 in 10.0 mi SSE 11.5 mph - N/A   Clear
2:53 AM 64.0 °F 50.0 °F 60% 29.69 in 10.0 mi SSE 12.7 mph - N/A   Clear
3:53 AM 62.1 °F 48.9 °F 62% 29.68 in 10.0 mi South 11.5 mph 23.0 mph N/A   Clear
4:53 AM 57.9 °F 50.0 °F 75% 29.71 in 10.0 mi NW 6.9 mph - N/A   Clear
5:53 AM 55.9 °F 51.1 °F 84% 29.70 in 10.0 mi Calm Calm - N/A   Clear
6:53 AM 60.1 °F 53.1 °F 78% 29.70 in 10.0 mi SW 3.5 mph - N/A   Clear
7:53 AM 61.0 °F 53.1 °F 75% 29.76 in 10.0 mi NW 17.3 mph - N/A   Clear
8:53 AM 63.0 °F 50.0 °F 63% 29.78 in 10.0 mi NNW 20.7 mph - N/A   Clear
9:53 AM 63.0 °F 51.1 °F 65% 29.78 in 10.0 mi North 20.7 mph - N/A   Scattered Clouds
10:53 AM 64.9 °F 51.1 °F 61% 29.79 in 10.0 mi North 16.1 mph - N/A   Partly Cloudy
11:53 AM 70.0 °F 51.1 °F 51% 29.77 in 10.0 mi North 12.7 mph - N/A   Clear
12:43 PM 71.1 °F 48.9 °F 45% 29.92 in 10.0 mi North 9.2 mph - N/A Thunderstorm Clear
12:53 PM 72.0 °F 48.9 °F 44% 29.75 in 10.0 mi North 6.9 mph - N/A   Clear
1:53 PM 73.0 °F 48.0 °F 41% 29.75 in 10.0 mi North 8.1 mph - N/A   Clear
2:53 PM 72.0 °F 46.0 °F 40% 29.77 in 10.0 mi NNW 27.6 mph 35.7 mph N/A   Partly Cloudy
3:53 PM 71.1 °F 45.0 °F 39% 29.75 in 10.0 mi North 10.4 mph - N/A   Clear
4:53 PM 68.0 °F 46.9 °F 47% 29.75 in 10.0 mi North - - N/A   Scattered Clouds
5:53 PM 72.0 °F 46.0 °F 40% 29.77 in 10.0 mi NW 8.1 mph - N/A   Clear
6:53 PM 70.0 °F 50.0 °F 49% 29.75 in 10.0 mi Calm Calm - N/A   Clear
8:08 PM 64.9 °F 48.9 °F 56% 29.91 in 10.0 mi SSW 8.1 mph - N/A Thunderstorm Thunderstorm
8:23 PM 64.9 °F 48.9 °F 56% 29.92 in 10.0 mi SSW 12.7 mph - 0.00 in Rain Light Rain
8:31 PM 64.0 °F 50.0 °F 60% 29.93 in 10.0 mi SSW 6.9 mph - 0.00 in Rain , Thunderstorm Light Thunderstorms and Rain
8:53 PM 63.0 °F 53.1 °F 70% 29.81 in 10.0 mi SSW 9.2 mph - 0.00 in Rain , Thunderstorm Light Rain
9:24 PM 62.1 °F 50.0 °F 65% 29.95 in 10.0 mi NNE 13.8 mph - 0.00 in   Scattered Clouds
9:53 PM 60.1 °F 48.9 °F 67% 29.84 in 10.0 mi NNE 11.5 mph - 0.00 in   Mostly Cloudy
10:53 PM 55.9 °F 48.0 °F 75% 29.86 in 10.0 mi North 8.1 mph - 0.00 in   Partly Cloudy
11:53 PM 55.0 °F 46.9 °F 74% 29.85 in 10.0 mi North 9.2 mph - N/A   Clear